User: anonymous   Login
Location: Newark
(30.0333°N, 31.2167°E)
Time: 19:36:23
(UTC+00:00)
Language:

Courier 1B Rocket - Orbit

View from above orbital plane
View from above orbital plane
View from above satellite
View from above satellite

Ground track
Ground track

The orbit data is extracted from the following two-line orbital elements,

1    59U 60013B   20022.34478980 +.00000116 +00000-0 +36423-4 0  9993
2    59 028.2469 253.8696 0189228 131.4920 230.2033 13.52973595926667
Epoch (UTC): 22 January 2020 08:16:29
Eccentricity: 0.0189228
inclination: 28.2469°
perigee height: 920 km
apogee height: 1202 km
right ascension of ascending node: 253.8696°
argument of perigee: 131.4920°
revolutions per day: 13.52973595
mean anomaly at epoch: 230.2033°
orbit number at epoch: 92666

The dashed part of the orbit path shows where the satellite is in the earth's shadow,  

DLR